| time (UTC) | temp F | wind direction | speed MPH | gust MPH | rain 1hr in | rain 24hr in | rain mn in | humidity % | barometer mb |
| 20260506031542 | 34 | 285 | 7.0 | 14.0 | 0.00 | 0.00 | 0.00 | 58 | 1020.7 |
| 20260506030040 | 34 | 304 | 7.0 | 10.0 | 0.00 | 0.00 | 0.00 | 60 | 1020.4 |
| 20260506024538 | 34 | 320 | 6.0 | 13.0 | 0.00 | 0.00 | 0.00 | 59 | 1020.1 |
| 20260506023048 | 35 | 345 | 5.0 | 14.0 | 0.00 | 0.00 | 0.00 | 57 | 1019.9 |
| 20260506021536 | 36 | 345 | 6.0 | 11.0 | 0.00 | 0.00 | 0.00 | 55 | 1019.6 |
| 20260506020132 | 37 | 233 | 4.0 | 11.0 | 0.00 | 0.00 | 0.00 | 53 | 1019.5 |
| 20260506014533 | 37 | 345 | 6.0 | 15.0 | 0.00 | 0.00 | 0.00 | 53 | 1019.4 |
| 20260506013029 | 37 | 75 | 7.0 | 16.0 | 0.00 | 0.00 | 0.00 | 55 | 1019.2 |
| 20260506011530 | 37 | 345 | 6.0 | 19.0 | 0.00 | 0.00 | 0.00 | 55 | 1019.0 |
| 20260506010043 | 38 | 277 | 11.0 | 16.0 | 0.00 | 0.00 | 0.00 | 53 | 1018.7 |
| 20260506004526 | 38 | 70 | 5.0 | 15.0 | 0.00 | 0.00 | 0.00 | 55 | 1018.8 |
| 20260506003024 | 38 | 345 | 11.0 | 17.0 | 0.00 | 0.00 | 0.00 | 56 | 1018.7 |
| 20260506001522 | 38 | 71 | 13.0 | 23.0 | 0.00 | 0.00 | 0.00 | 56 | 1018.5 |
| 20260506000022 | 38 | 276 | 11.0 | 20.0 | 0.00 | 0.00 | 0.00 | 54 | 1018.2 |
| 20260505234533 | 38 | 74 | 16.0 | 22.0 | 0.00 | 0.00 | 0.00 | 51 | 1018.0 |
| 20260505233018 | 38 | 94 | 13.0 | 22.0 | 0.00 | 0.00 | 0.00 | 52 | 1017.8 |
| 20260505231515 | 39 | 79 | 13.0 | 22.0 | 0.00 | 0.00 | 0.00 | 47 | 1017.8 |
| 20260505230012 | 39 | 79 | 16.0 | 26.0 | 0.00 | 0.00 | 0.00 | 52 | 1017.3 |
| 20260505224512 | 40 | 345 | 13.0 | 21.0 | 0.00 | 0.00 | 0.00 | 53 | 1017.3 |
| 20260505223011 | 40 | 345 | 15.0 | 23.0 | 0.00 | 0.00 | 0.00 | 53 | 1017.3 |
| 20260505221510 | 40 | 96 | 19.0 | 28.0 | 0.00 | 0.00 | 0.00 | 55 | 1017.2 |
| 20260505220009 | 42 | 100 | 14.0 | 24.0 | 0.00 | 0.00 | 0.00 | 47 | 1017.1 |
| 20260505214509 | 44 | 345 | 15.0 | 24.0 | 0.00 | 0.00 | 0.00 | 45 | 1017.1 |
| 20260505213008 | 41 | 345 | 13.0 | 21.0 | 0.00 | 0.00 | 0.00 | 47 | 1017.0 |
| 20260505211505 | 41 | 345 | 13.0 | 19.0 | 0.00 | 0.00 | 0.00 | 49 | 1017.2 |
| 20260505210006 | 42 | 345 | 13.0 | 20.0 | 0.00 | 0.00 | 0.00 | 50 | 1017.1 |
| 20260505204503 | 41 | 94 | 14.0 | 22.0 | 0.00 | 0.00 | 0.00 | 50 | 1017.0 |
| 20260505203008 | 41 | 345 | 15.0 | 27.0 | 0.00 | 0.00 | 0.00 | 50 | 1017.1 |
| 20260505201502 | 41 | 345 | 12.0 | 23.0 | 0.00 | 0.00 | 0.00 | 51 | 1017.1 |
| 20260505200000 | 42 | 345 | 10.0 | 18.0 | 0.00 | 0.00 | 0.00 | 51 | 1017.2 |
| 20260505194608 | 41 | 345 | 14.0 | 21.0 | 0.00 | 0.00 | 0.00 | 51 | 1017.1 |
| 20260505193059 | 42 | 345 | 10.0 | 20.0 | 0.00 | 0.00 | 0.00 | 49 | 1017.1 |
| 20260505191558 | 42 | 345 | 14.0 | 20.0 | 0.00 | 0.00 | 0.00 | 49 | 1017.2 |
| 20260505190057 | 42 | 345 | 10.0 | 18.0 | 0.00 | 0.00 | 0.00 | 50 | 1017.1 |
| 20260505184556 | 41 | 345 | 10.0 | 20.0 | 0.00 | 0.00 | 0.00 | 50 | 1017.2 |
| 20260505183055 | 41 | 345 | 13.0 | 21.0 | 0.00 | 0.00 | 0.00 | 50 | 1017.1 |
| 20260505181553 | 41 | 345 | 11.0 | 18.0 | 0.00 | 0.00 | 0.00 | 48 | 1017.1 |
| 20260505180105 | 40 | 345 | 12.0 | 20.0 | 0.00 | 0.00 | 0.00 | 50 | 1017.1 |
| 20260505174601 | 40 | 345 | 11.0 | 17.0 | 0.00 | 0.00 | 0.00 | 49 | 1017.1 |
| 20260505173048 | 40 | 345 | 12.0 | 19.0 | 0.00 | 0.00 | 0.00 | 49 | 1017.0 |
| 20260505171548 | 39 | 345 | 13.0 | 20.0 | 0.00 | 0.00 | 0.00 | 50 | 1017.1 |
| 20260505170048 | 39 | 345 | 11.0 | 20.0 | 0.00 | 0.00 | 0.00 | 52 | 1017.2 |
| 20260505164645 | 39 | 345 | 13.0 | 20.0 | 0.00 | 0.00 | 0.00 | 51 | 1017.1 |
| 20260505163043 | 39 | 345 | 13.0 | 21.0 | 0.00 | 0.00 | 0.00 | 52 | 1017.2 |
| 20260505161543 | 39 | 345 | 12.0 | 17.0 | 0.00 | 0.00 | 0.00 | 52 | 1017.1 |
| 20260505153040 | 37 | 345 | 12.0 | 18.0 | 0.00 | 0.00 | 0.00 | 53 | 1017.1 |
| 20260505151536 | 37 | 345 | 9.0 | 17.0 | 0.00 | 0.00 | 0.00 | 53 | 1017.0 |
| 20260505124520 | 31 | 345 | 6.0 | 14.0 | 0.00 | 0.00 | 0.00 | 70 | 1016.0 |
| 20260505123017 | 30 | 294 | 7.0 | 12.0 | 0.00 | 0.00 | 0.00 | 71 | 1015.8 |
| 20260505121516 | 30 | 272 | 11.0 | 15.0 | 0.00 | 0.00 | 0.00 | 71 | 1015.9 |
| 20260505120016 | 29 | 268 | 8.0 | 11.0 | 0.00 | 0.00 | 0.00 | 72 | 1015.8 |
| 20260505114511 | 29 | 297 | 5.0 | 9.0 | 0.00 | 0.00 | 0.00 | 72 | 1015.8 |
| 20260505113009 | 29 | 283 | 5.0 | 8.0 | 0.00 | 0.00 | 0.00 | 72 | 1015.8 |
| 20260505111507 | 29 | 283 | 5.0 | 7.0 | 0.00 | 0.00 | 0.00 | 71 | 1015.6 |
| 20260505101503 | 31 | 326 | 4.0 | 8.0 | 0.00 | 0.00 | 0.00 | 67 | 1015.5 |
| 20260505100003 | 30 | 275 | 6.0 | 10.0 | 0.00 | 0.00 | 0.00 | 69 | 1015.5 |
| 20260505094558 | 32 | 277 | 3.0 | 5.0 | 0.00 | 0.00 | 0.00 | 65 | 1015.1 |
| 20260505093059 | 30 | 345 | 5.0 | 10.0 | 0.00 | 0.00 | 0.00 | 67 | 1015.2 |
| 20260505090052 | 31 | 283 | 9.0 | 12.0 | 0.00 | 0.00 | 0.00 | 66 | 1015.3 |
| 20260505084552 | 33 | 283 | 9.0 | 13.0 | 0.00 | 0.00 | 0.00 | 64 | 1015.2 |
| 20260505083051 | 31 | 294 | 10.0 | 13.0 | 0.00 | 0.00 | 0.00 | 68 | 1015.2 |
| 20260505081557 | 31 | 280 | 11.0 | 14.0 | 0.00 | 0.00 | 0.00 | 68 | 1015.2 |
| 20260505080051 | 32 | 296 | 7.0 | 11.0 | 0.00 | 0.00 | 0.00 | 67 | 1015.4 |
| 20260505074542 | 33 | 302 | 7.0 | 11.0 | 0.00 | 0.00 | 0.00 | 65 | 1015.4 |
| 20260505073045 | 33 | 308 | 7.0 | 12.0 | 0.00 | 0.00 | 0.00 | 66 | 1015.3 |
| 20260505071550 | 33 | 279 | 9.0 | 11.0 | 0.00 | 0.00 | 0.00 | 66 | 1015.4 |
| 20260505070038 | 33 | 302 | 5.0 | 8.0 | 0.00 | 0.00 | 0.00 | 64 | 1015.4 |
| 20260505064532 | 34 | 238 | 4.0 | 7.0 | 0.00 | 0.00 | 0.00 | 63 | 1015.3 |
| 20260505063031 | 34 | 345 | 5.0 | 6.0 | 0.00 | 0.00 | 0.00 | 63 | 1015.3 |
| 20260505061536 | 35 | 345 | 0.0 | 4.0 | 0.00 | 0.00 | 0.00 | 60 | 1015.2 |
| 20260505060025 | 36 | 65 | 0.0 | 6.0 | 0.00 | 0.00 | 0.00 | 58 | 1015.1 |
| 20260505054523 | 36 | 345 | 2.0 | 4.0 | 0.00 | 0.00 | 0.00 | 57 | 1015.2 |
| 20260505053020 | 36 | 345 | 3.0 | 6.0 | 0.00 | 0.00 | 0.00 | 57 | 1015.0 |
| 20260505051531 | 37 | 345 | 3.0 | 5.0 | 0.00 | 0.00 | 0.00 | 56 | 1015.0 |
| 20260505041508 | 40 | 345 | 4.0 | 6.0 | 0.00 | 0.00 | 0.00 | 52 | 1014.7 |
| 20260505040012 | 40 | 345 | 4.0 | 10.0 | 0.00 | 0.00 | 0.00 | 52 | 1014.5 |
| 20260505034505 | 40 | 345 | 1.0 | 12.0 | 0.00 | 0.00 | 0.00 | 52 | 1014.3 |
| 20260505033005 | 41 | 345 | 2.0 | 5.0 | 0.00 | 0.00 | 0.00 | 54 | 1014.1 |